Regional Weather Roundup
Issued by NWS State College, PA

Home | Current Version | Previous Version | Graphics & Text | Print | Product List | Glossary Off
Versions: 1 2 3 4 5 6 7 8 9 10 11 12 13 14 15 16 17 18 19 20 21 22 23 24 25 26 27 28 29 30 31 32 33 34 35 36 37 38 39 40 41 42 43 44 45 46 47 48 49 50

000
ASUS41 KCTP 141703
RWRCTP

REGIONAL WEATHER ROUNDUP
NATIONAL WEATHER SERVICE STATE COLLEGE PA
1200 PM EST THU DEC 14 2017

Note: "fair" indicates few or no clouds below 12,000 feet with no
significant weather and/or obstructions to visibility.

* = STATION THAT DOES NOT REPORT PRECIPITATION /E.G. RAIN...SNOW...ETC/
    THUNDER OR FOG.

PAZ002>004-007>009-013>016-020>023-029>032-141800-
WESTERN PENNSYLVANIA

CITY           SKY/WX    TMP DP  RH WIND       PRES   REMARKS
ERIE           CLOUDY    21  11  65 NW7       29.97R WCI  12
MEADVILLE      CLOUDY    19  11  70 W8        29.92S WCI   9
FRANKLIN*      PTSUNNY   23   8  52 NW10G17   29.91R WCI  12
NEW CASTLE     CLOUDY    26  13  57 NW6       29.97R
BEAVER COUNTY  SUNNY     25  12  58 NW9       29.94S
BUTLER*        FLURRIES  28  12  51 NW9       29.93S
PITTSBURGH INT PTSUNNY   26  14  60 NW13      29.94R WCI  15
PITTSBURGH     MOSUNNY   26  12  55 NW9       29.92R
INDIANA*       MOSUNNY   23  12  63 NW12G20   29.91S WCI  12
LATROBE        FLURRIES  25  16  68 NW14      29.92R WCI  13
WASHINGTON CO* FLURRIES  26  18  71 N10       29.96R
$$

PAZ004>006-010>012-017>019-024>028-033>037-041-042-045-046-049>053-141800-
CENTRAL PENNSYLVANIA

CITY           SKY/WX    TMP DP  RH WIND       PRES   REMARKS
BRADFORD         N/A     14   4  64 NW15G23   29.80R WCI  -1
DUBOIS         MOSUNNY   19   7  59 NW17      29.83R WCI   4
CLEARFIELD     MIX PCPN  22  10  60 NW14      29.83S WCI   9
JOHNSTOWN      FLURRIES  20  14  77 W9        29.78S WCI   9
ALTOONA        MOSUNNY   25  13  60 NW16G25   29.83R WCI  12
STATE COLLEGE  PTSUNNY   23  10  58 NW14G28   29.83R WCI  11
WILLIAMSPORT   PTSUNNY   29  13  51 NW13G22   29.83S
SELINSGROVE    MOSUNNY   29  15  56 NW14G21   29.84S
FT INDIANTOWN  PTSUNNY   28  15  57 NW10G20   29.82R
CAPITAL CITY   MOSUNNY   31  13  47 NW17      29.84R
HARRISBURG     MOSUNNY   31  17  56 NW17G32   29.83R
YORK           MOSUNNY   31  17  56 NW15G23   29.84R
$$

PAZ038>040-043-044-047-048-054-055-060>062-067>071-141800-
EASTERN PENNSYLVANIA

CITY           SKY/WX    TMP DP  RH WIND       PRES   REMARKS
SCRANTON       MIX PCPN  24  15  68 W14G23    29.77R WCI  12
MOUNT POCONO   FLURRIES  17  10  74 W24G31    29.67R WCI  -1
ALLENTOWN      MOSUNNY   28  14  55 NW15G25   29.79R
QUAKERTOWN*    MOSUNNY   28  16  59 NW13      29.79R
READING        SUNNY     29  20  69 NW21      29.81R
LANCASTER      SUNNY     30  19  63 NW10      29.83R
COATESVILLE    SUNNY     28  18  64 NW13G22   29.81R
POTTSTOWN      MOSUNNY   29  19  66 W10       29.82R
BLUE BELL      MOSUNNY   30  19  64 NW7G16    29.81R
DOYLESTOWN     PTSUNNY   29  18  63 NW12G21   29.77R
WILLOW GROVE   NOT AVBL
NORTH PHILA    MOSUNNY   33  20  58 NW13G24   29.81R
PHILADELPHIA   MOSUNNY   33  22  63 W13       29.81R
$$




USA.gov is the U.S. government's official web portal to all federal, state and local government web resources and services.